Weather Roundup
Issued by NWS Corpus Christi, TX

Home | Current Version | Previous Version | Text Only | Print | Product List | Glossary On
Versions: 1 2 3 4 5 6 7 8 9 10 11 12 13 14 15 16 17 18 19 20 21 22 23 24 25 26 27 28 29 30 31 32 33 34 35 36 37 38 39 40 41 42 43 44 45 46 47 48 49 50
000
ASUS44 KCRP 261610
HRRCRP

SOUTH TEXAS REGIONAL WEATHER ROUNDUP
NATIONAL WEATHER SERVICE CORPUS CHRISTI TX
1100 AM CDT TUE JUL 26 2016


TXZ229>244-261700-
...CORPUS CHRISTI AREA OBSERVATIONS...

CITY           SKY/WX    TMP DP  RH WIND       PRES   REMARKS
CORPUS CHRISTI PTSUNNY   88  75  65 S6        29.93R HX  97
NAS CORPUS CHR PTSUNNY   87  78  74 SE10      29.94R HX 100
ROCKPORT       CLOUDY    83  76  79 NE12      29.95R HX  91
KINGSVILLE NAS PTSUNNY   91  76  61 S9        29.92R HX 103
ALICE          MOSUNNY   91  72  53 S10       29.92R HX  98
FALFURRIAS     SUNNY     91  70  50 S12       29.91R HX  96
$$

...VICTORIA AREA OBSERVATIONS...

CITY           SKY/WX    TMP DP  RH WIND       PRES   REMARKS
VICTORIA       LGT RAIN  77  75  93 SE12      29.96R
BEEVILLE       RAIN      80  79  99 E3        29.95R
PLEASANTON     CLOUDY    81  74  79 E3        29.95S
SAN ANTONIO    CLOUDY    81  74  79 E7        29.97S
$$

...LAREDO AREA OBSERVATIONS...

CITY           SKY/WX    TMP DP  RH WIND       PRES   REMARKS
LAREDO         CLOUDY    88  75  65 S7        29.92R HX  97
COTULLA        LGT RAIN  80  77  90 NE7       29.94R FOG
DEL RIO        CLOUDY    88  69  53 SE7       29.94S HX  92
MCALLEN        MOSUNNY   93  71  48 SE20      29.90F HX 100
HEBBRONVILLE   MOSUNNY   89  72  57 S8        29.92F HX  95
$$

...OTHER TEXAS OBSERVATIONS...

CITY           SKY/WX    TMP DP  RH WIND       PRES   REMARKS
BROWNSVILLE    MOSUNNY   92  73  53 S16G24    29.92R HX 100
HOUSTON        PTSUNNY   85  76  74 NE7       29.94F HX  94
COL. STATION   MOSUNNY   84  73  69 NE5       29.97S HX  90
AUSTIN         PTSUNNY   83  75  77 VRB3      29.96S HX  90
WACO           MOSUNNY   86  73  65 N5        29.97S HX  93
FORT WORTH     MOSUNNY   89  72  56 SE5       29.97F HX  96
WICHITA FALLS  CLOUDY    86  71  60 E5        30.00S HX  91
LUBBOCK        MOSUNNY   84  60  44 N10       30.11F
EL PASO        MOSUNNY   84  58  40 N10       30.14F
$$

...MARINE OBSERVATIONS...

STATION/POSITION TIME  SKY/WX   TEMP    WIND        PRES    VSBY  WAVE   SWELL
                                AIR SEA DIR/SP/G                  HT/PER HT/PER
                 (UTC)          (F)     (DEG/KT/KT) (MB)    (MI)  (FT/S) (FT/S)
PORT ARANSAS     1600            84 87  180/ 12/ 13 1014.2R
BUOY 90 E PORT A 1450            75 85  150/  6/ 10 1016.2          3/ 4   2/ 5
BUOY 45 SE BAFFI 1550            85 85  170/ 12/ 14 1013.5R         3/ 6   2/ 9
BUOY 200 E PT IS 1550            86 86  170/ 14/ 16 1015.0R         4/ 6
BUOY 15 E GALVES 1550            82 88   60/  4/  4 1014.1R         1/ 5   2/ 5
$$



USA.gov is the U.S. government's official web portal to all federal, state and local government web resources and services.